When you browse on this site, cookies collect data to enhance your experience and personalize the content and advertising you see.
Visit our Privacy Policy to learn more. By continuing to use the site, you agree to this use of cookies and data.
  • In Norway
  • List of Countries
  • For 7 days
  • Water Temperature
  • Satellite Maps
  • Weather Map
  • Weather Widgets
  • user-avatar
    Login

    Hourly Weather Townsville

    Today, 18 December, Tuesday

    Time Temperature Precipitation Wind Pressure Humidity
    00:00 +29°C° 0 mm 1 mps 748 mmHg 75%
    01:00 +28°C° 0 mm 1 mps 748 mmHg 76%
    02:00 +28°C° 0 mm 1 mps 748 mmHg 77%
    03:00 +28°C° 0 mm 1 mps 748 mmHg 77%
    04:00 +28°C° 0 mm 1 mps 747 mmHg 80%
    05:00 +29°C° 0 mm 1 mps 748 mmHg 78%
    06:00 +29°C° 0 mm 1 mps 748 mmHg 76%
    07:00 +30°C° 0 mm 2 mps 749 mmHg 74%
    08:00 +32°C° 0 mm 2 mps 749 mmHg 66%
    09:00 +35°C° 0 mm 2 mps 749 mmHg 58%
    10:00 +37°C° 0 mm 2 mps 749 mmHg 48%
    11:00 +38°C° 0 mm 2 mps 748 mmHg 45%
    12:00 +39°C° 0 mm 3 mps 748 mmHg 42%
    13:00 +41°C° 0 mm 4 mps 748 mmHg 39%
    14:00 +40°C° 0 mm 4 mps 748 mmHg 44%
    15:00 +38°C° 0 mm 4 mps 747 mmHg 48%
    16:00 +37°C° 0 mm 3 mps 747 mmHg 49%
    17:00 +35°C° 0 mm 4 mps 747 mmHg 58%
    18:00 +33°C° 0 mm 4 mps 747 mmHg 68%
    19:00 +32°C° 0 mm 4 mps 748 mmHg 78%
    20:00 +30°C° 0 mm 4 mps 748 mmHg 82%
    21:00 +29°C° 0 mm 4 mps 749 mmHg 86%
    22:00 +28°C° 0 mm 4 mps 749 mmHg 91%
    23:00 +28°C° 0 mm 3 mps 749 mmHg 92%

    Tomorrow, 19 December, Wednesday

    Time Temperature Precipitation Wind Pressure Humidity
    00:00 +28°C° 0 mm 3 mps 749 mmHg 92%
    01:00 +28°C° 0 mm 3 mps 749 mmHg 93%
    02:00 +28°C° 0 mm 2 mps 749 mmHg 93%
    03:00 +27°C° 0 mm 2 mps 749 mmHg 93%
    04:00 +27°C° 0 mm 2 mps 749 mmHg 93%
    05:00 +28°C° 0 mm 1 mps 750 mmHg 91%
    06:00 +28°C° 0 mm 1 mps 750 mmHg 88%
    07:00 +29°C° 0 mm 1 mps 750 mmHg 85%
    08:00 +31°C° 0 mm 1 mps 750 mmHg 74%
    09:00 +33°C° 0 mm 1 mps 750 mmHg 64%
    10:00 +36°C° 0 mm 1 mps 750 mmHg 54%
    11:00 +38°C° 0 mm 2 mps 750 mmHg 49%
    12:00 +38°C° 0 mm 2 mps 749 mmHg 45%
    13:00 +39°C° 0 mm 3 mps 749 mmHg 40%
    14:00 +39°C° 0 mm 3 mps 748 mmHg 43%
    15:00 +38°C° 0 mm 4 mps 748 mmHg 45%
    16:00 +37°C° 0 mm 4 mps 748 mmHg 48%
    17:00 +35°C° 0 mm 4 mps 748 mmHg 60%
    18:00 +33°C° 0 mm 4 mps 748 mmHg 72%
    19:00 +30°C° 0 mm 4 mps 748 mmHg 84%
    20:00 +30°C° 0.3 mm 3 mps 749 mmHg 85%
    21:00 +29°C° 0.3 mm 3 mps 749 mmHg 87%
    22:00 +29°C° 0.3 mm 3 mps 750 mmHg 88%
    23:00 +29°C° 0.5 mm 3 mps 750 mmHg 89%

    Day after tomorrow, 20 December, Thursday

    Time Temperature Precipitation Wind Pressure Humidity
    00:00 +28°C° 0.5 mm 3 mps 750 mmHg 90%
    01:00 +28°C° 0.5 mm 2 mps 750 mmHg 90%
    02:00 +28°C° 0.2 mm 2 mps 749 mmHg 91%
    03:00 +28°C° 0.2 mm 2 mps 749 mmHg 91%
    04:00 +27°C° 0.2 mm 2 mps 749 mmHg 92%
    05:00 +28°C° 0 mm 2 mps 749 mmHg 89%
    06:00 +28°C° 0 mm 2 mps 750 mmHg 85%
    07:00 +29°C° 0 mm 2 mps 750 mmHg 82%
    08:00 +31°C° 0 mm 2 mps 750 mmHg 74%
    09:00 +34°C° 0 mm 2 mps 750 mmHg 66%
    10:00 +35°C° 0 mm 2 mps 750 mmHg 58%
    11:00 +36°C° 0 mm 2 mps 749 mmHg 56%
    12:00 +37°C° 0 mm 3 mps 749 mmHg 54%
    13:00 +37°C° 0 mm 3 mps 748 mmHg 52%
    14:00 +37°C° 0 mm 3 mps 748 mmHg 55%
    15:00 +36°C° 0 mm 4 mps 747 mmHg 59%
    16:00 +36°C° 0 mm 4 mps 746 mmHg 62%
    17:00 +34°C° 0 mm 4 mps 747 mmHg 70%
    18:00 +33°C° 0 mm 4 mps 747 mmHg 77%
    19:00 +30°C° 0 mm 4 mps 748 mmHg 84%
    20:00 +30°C° 0 mm 3 mps 748 mmHg 86%
    21:00 +29°C° 0 mm 3 mps 749 mmHg 87%
    22:00 +29°C° 0 mm 3 mps 749 mmHg 89%
    23:00 +29°C° 0 mm 3 mps 749 mmHg 90%

    21 December, Friday

    Time Temperature Precipitation Wind Pressure Humidity
    00:00 +28°C° 0 mm 3 mps 748 mmHg 90%
    01:00 +28°C° 0 mm 2 mps 748 mmHg 91%
    02:00 +28°C° 0 mm 2 mps 748 mmHg 92%
    03:00 +27°C° 0 mm 2 mps 747 mmHg 93%
    04:00 +27°C° 0 mm 2 mps 747 mmHg 94%
    05:00 +28°C° 0 mm 2 mps 747 mmHg 91%
    06:00 +28°C° 0 mm 2 mps 748 mmHg 88%
    07:00 +29°C° 0 mm 2 mps 748 mmHg 85%
    08:00 +30°C° 0 mm 2 mps 748 mmHg 78%
    09:00 +32°C° 0 mm 2 mps 748 mmHg 72%
    10:00 +35°C° 0 mm 2 mps 748 mmHg 65%
    11:00 +35°C° 0 mm 3 mps 748 mmHg 62%
    12:00 +36°C° 0 mm 3 mps 747 mmHg 59%
    13:00 +37°C° 0 mm 3 mps 747 mmHg 56%
    14:00 +37°C° 0 mm 3 mps 746 mmHg 58%
    15:00 +37°C° 0 mm 4 mps 746 mmHg 60%
    16:00 +36°C° 0 mm 4 mps 746 mmHg 61%
    17:00 +35°C° 0 mm 3 mps 746 mmHg 69%
    18:00 +33°C° 0 mm 3 mps 747 mmHg 76%
    19:00 +31°C° 0 mm 3 mps 747 mmHg 83%
    20:00 +30°C° 0 mm 2 mps 747 mmHg 86%
    21:00 +30°C° 0 mm 2 mps 748 mmHg 89%
    22:00 +29°C° 0 mm 1 mps 748 mmHg 92%
    23:00 +29°C° 0 mm 2 mps 748 mmHg 93%

    22 December, Saturday

    Time Temperature Precipitation Wind Pressure Humidity
    00:00 +29°C° 0 mm 2 mps 748 mmHg 94%
    01:00 +29°C° 0 mm 2 mps 748 mmHg 95%
    02:00 +28°C° 0 mm 2 mps 747 mmHg 95%
    03:00 +28°C° 0 mm 2 mps 747 mmHg 96%
    04:00 +28°C° 0 mm 1 mps 746 mmHg 96%
    05:00 +29°C° 0 mm 2 mps 747 mmHg 93%
    06:00 +29°C° 0 mm 2 mps 748 mmHg 90%
    07:00 +29°C° 0 mm 2 mps 748 mmHg 87%
    08:00 +31°C° 0 mm 2 mps 748 mmHg 80%
    09:00 +34°C° 0 mm 2 mps 748 mmHg 73%
    10:00 +35°C° 0 mm 3 mps 748 mmHg 65%
    11:00 +37°C° 0 mm 3 mps 748 mmHg 59%
    12:00 +38°C° 0 mm 3 mps 747 mmHg 53%
    13:00 +40°C° 0 mm 3 mps 747 mmHg 47%
    14:00 +40°C° 0 mm 4 mps 746 mmHg 51%
    15:00 +38°C° 0 mm 4 mps 746 mmHg 55%
    16:00 +37°C° 0 mm 4 mps 746 mmHg 59%
    17:00 +35°C° 0 mm 4 mps 746 mmHg 69%
    18:00 +33°C° 0 mm 4 mps 746 mmHg 78%
    19:00 +30°C° 0 mm 4 mps 747 mmHg 88%
    20:00 +30°C° 0 mm 4 mps 747 mmHg 88%
    21:00 +30°C° 0 mm 3 mps 748 mmHg 88%
    22:00 +30°C° 0 mm 3 mps 748 mmHg 89%
    23:00 +30°C° 0.4 mm 3 mps 748 mmHg 90%

    23 December, Sunday

    Time Temperature Precipitation Wind Pressure Humidity
    00:00 +29°C° 0.4 mm 3 mps 748 mmHg 91%
    01:00 +29°C° 0.4 mm 3 mps 747 mmHg 92%
    02:00 +29°C° 0.2 mm 3 mps 747 mmHg 94%
    03:00 +29°C° 0.2 mm 3 mps 747 mmHg 95%
    04:00 +29°C° 0.2 mm 2 mps 747 mmHg 96%
    05:00 +29°C° 0.1 mm 2 mps 748 mmHg 94%
    06:00 +30°C° 0.1 mm 2 mps 748 mmHg 92%
    07:00 +30°C° 0.1 mm 1 mps 749 mmHg 89%
    08:00 +30°C° 0.5 mm 2 mps 749 mmHg 86%
    09:00 +31°C° 0.5 mm 2 mps 749 mmHg 83%
    10:00 +31°C° 0.5 mm 2 mps 749 mmHg 79%
    11:00 +32°C° 0.6 mm 2 mps 749 mmHg 75%
    12:00 +33°C° 0.6 mm 3 mps 749 mmHg 71%
    13:00 +34°C° 0.6 mm 3 mps 748 mmHg 67%
    14:00 +34°C° 0 mm 3 mps 748 mmHg 68%
    15:00 +34°C° 0 mm 4 mps 748 mmHg 69%
    16:00 +34°C° 0 mm 4 mps 747 mmHg 70%
    17:00 +32°C° 0 mm 4 mps 748 mmHg 75%
    18:00 +30°C° 0 mm 4 mps 748 mmHg 80%
    19:00 +29°C° 0 mm 3 mps 749 mmHg 85%
    20:00 +29°C° 0.1 mm 4 mps 749 mmHg 87%
    21:00 +29°C° 0.1 mm 4 mps 750 mmHg 89%
    22:00 +28°C° 0.1 mm 4 mps 750 mmHg 91%
    23:00 +28°C° 0.5 mm 4 mps 750 mmHg 91%
    Show more